Hourly Data Report for May 17, 2022

MUSKOKA
ONTARIO
Current Station Operator: NAVCAN

44°58'29.000" N
79°18'12.000" W
281.90 m
6115529
71532
YQA

Download Data

Hourly Data (May 2022)
Hourly Data Report for May 17, 2022
TIME
LST
Temp Definition
°C
Dew Point Definition
°C
Rel Hum Definition
%
Precip. Amount Definition
mm

Wind Dir Definition
10's deg

Wind Spd Definition
km/h
Visibility Definition
km
Stn Press Definition
kPa
Hmdx Definition


Wind Chill Definition


Weather Definition


00:00 8.4 3.7 72 0.0 26 17 16.1 97.21     LegendNANA
01:00 6.6 2.3 74 0.0 27 13 16.1 97.18     LegendNANA
02:00 5.9 2.7 80 0.0 27 15 16.1 97.17     LegendNANA
03:00 5.9 3.1 82 0.0 26 15 16.1 97.19     LegendNANA
04:00 5.2 4.3 94 1.5 24 9 4.8 97.21     Moderate Rain, Fog
05:00 5.3 4.7 96 1.0 25 11 16.1 97.24     LegendNANA
06:00 6.3 5.7 96 0.0 26 15 16.1 97.30     LegendNANA
07:00 6.6 5.9 95 0.0 27 13 16.1 97.37     LegendNANA
08:00 7.5 6.4 93 0.0 28 15 16.1 97.44     LegendNANA
09:00 9.4 7.4 87 0.0 28 15 16.1 97.48     LegendNANA
10:00 10.1 8.2 88 0.0 29 17 16.1 97.55     Rain
11:00 12.1 6.5 68 0.0 32 34 16.1 97.60     LegendNANA
12:00 13.1 6.2 63 0.0 32 26 16.1 97.65     LegendNANA
13:00 12.3 7.3 71 0.0 26 24 16.1 97.70     LegendNANA
14:00 11.9 7.5 74 0.0 28 22 16.1 97.76     Rain
15:00 12.9 6.7 66 0.5 30 24 16.1 97.79     LegendNANA
16:00 12.5 5.1 60 0.0 29 24 16.1 97.85     LegendNANA
17:00 13.2 5.2 58 0.0 28 21 16.1 97.91     LegendNANA
18:00 12.6 4.8 59 0.0 29 17 16.1 97.92     LegendNANA
19:00 11.6 4.5 62 0.0 28 13 16.1 97.98     LegendNANA
20:00 9.5 4.5 71 0.0 29 9 16.1 98.07     LegendNANA
21:00 8.1 4.5 78 0.0 28 9 16.1 98.17     LegendNANA
22:00 6.8 4.8 87 0.0 29 8 16.1 98.19     LegendNANA
23:00 3.7 3.1 96 0.0 LegendMM 4 16.1 98.23     LegendNANA

Notes on Data Quality.

Legend

  • E = Estimated
  • M = Missing
  • NA = Not Available*
  • [empty] = Indicates an unobserved value
Date modified: